TimeEET,TemperatureF,Dew PointF,Humidity,Sea Level PressureIn,VisibilityMPH,Wind Direction,Wind SpeedMPH,Gust SpeedMPH,PrecipitationIn,Events,Conditions,WindDirDegrees,DateUTC
12:20 AM,48.2,35.6,62,30.27,6.2,Calm,Calm,-,N/A,,Partly Cloudy,0,2011-11-26 22:20:00
12:50 AM,48.2,37.4,66,30.27,6.2,Calm,Calm,-,N/A,,Scattered Clouds,0,2011-11-26 22:50:00
1:20 AM,48.2,37.4,66,30.27,6.2,NNW,6.9,-,N/A,,Scattered Clouds,330,2011-11-26 23:20:00
1:50 AM,50.0,37.4,62,30.27,6.2,NNW,6.9,-,N/A,,Scattered Clouds,330,2011-11-26 23:50:00
2:20 AM,50.0,37.4,62,30.27,6.2,NNW,5.8,-,N/A,,Scattered Clouds,330,2011-11-27 00:20:00
2:50 AM,48.2,37.4,66,30.27,6.2,Calm,Calm,-,N/A,,Partly Cloudy,0,2011-11-27 00:50:00
3:20 AM,48.2,37.4,66,30.27,6.2,Calm,Calm,-,N/A,,Partly Cloudy,0,2011-11-27 01:20:00
3:50 AM,48.2,37.4,66,30.27,6.2,NNW,9.2,-,N/A,,Partly Cloudy,330,2011-11-27 01:50:00
4:20 AM,48.2,37.4,66,30.27,6.2,NNW,6.9,-,N/A,,Partly Cloudy,340,2011-11-27 02:20:00
4:50 AM,50.0,37.4,62,30.27,6.2,NNW,8.1,-,N/A,,Partly Cloudy,330,2011-11-27 02:50:00
5:20 AM,50.0,37.4,62,30.27,6.2,NNW,6.9,-,N/A,,Partly Cloudy,330,2011-11-27 03:20:00
5:50 AM,48.2,37.4,66,30.27,6.2,Calm,Calm,-,N/A,,Partly Cloudy,0,2011-11-27 03:50:00
6:20 AM,48.2,37.4,66,30.27,6.2,Calm,Calm,-,N/A,,Partly Cloudy,0,2011-11-27 04:20:00
6:50 AM,50.0,37.4,62,30.27,6.2,NW,5.8,-,N/A,,Scattered Clouds,310,2011-11-27 04:50:00
7:20 AM,50.0,37.4,62,30.27,6.2,NW,9.2,-,N/A,,Scattered Clouds,310,2011-11-27 05:20:00
7:50 AM,50.0,37.4,62,30.30,6.2,NW,13.8,-,N/A,,Scattered Clouds,320,2011-11-27 05:50:00
8:20 AM,50.0,35.6,58,30.30,6.2,NW,13.8,-,N/A,,Scattered Clouds,320,2011-11-27 06:20:00
8:50 AM,51.8,37.4,58,30.30,6.2,NNW,11.5,-,N/A,,Scattered Clouds,330,2011-11-27 06:50:00
9:20 AM,53.6,37.4,54,30.30,6.2,NNW,8.1,-,N/A,,Scattered Clouds,330,2011-11-27 07:20:00
9:50 AM,53.6,37.4,54,30.30,6.2,NW,11.5,-,N/A,,Scattered Clouds,320,2011-11-27 07:50:00
10:20 AM,53.6,37.4,54,30.30,6.2,NW,11.5,-,N/A,,Scattered Clouds,320,2011-11-27 08:20:00
10:50 AM,53.6,37.4,54,30.30,6.2,NW,11.5,-,N/A,,Mostly Cloudy,320,2011-11-27 08:50:00
11:20 AM,53.6,37.4,54,30.30,6.2,NNW,11.5,-,N/A,,Mostly Cloudy,330,2011-11-27 09:20:00
11:50 AM,53.6,37.4,54,30.30,6.2,NNW,11.5,-,N/A,,Mostly Cloudy,340,2011-11-27 09:50:00
12:20 PM,55.4,35.6,47,30.30,6.2,NNW,11.5,-,N/A,,Mostly Cloudy,340,2011-11-27 10:20:00
12:50 PM,57.2,35.6,44,30.27,6.2,North,9.2,-,N/A,,Partly Cloudy,350,2011-11-27 10:50:00
1:50 PM,57.2,35.6,44,30.27,6.2,North,13.8,-,N/A,,Partly Cloudy,350,2011-11-27 11:50:00
2:20 PM,57.2,35.6,44,30.27,6.2,North,11.5,-,N/A,,Partly Cloudy,350,2011-11-27 12:20:00
2:50 PM,57.2,35.6,44,30.24,6.2,NNW,16.1,-,N/A,,Partly Cloudy,340,2011-11-27 12:50:00
3:20 PM,57.2,35.6,44,30.24,6.2,NNW,16.1,-,N/A,,Partly Cloudy,340,2011-11-27 13:20:00
3:50 PM,55.4,35.6,47,30.27,6.2,NNW,9.2,-,N/A,,Partly Cloudy,340,2011-11-27 13:50:00
4:50 PM,53.6,33.8,47,30.27,6.2,NNW,6.9,-,N/A,,Partly Cloudy,340,2011-11-27 14:50:00
5:20 PM,53.6,33.8,47,30.27,6.2,NNW,6.9,-,N/A,,Partly Cloudy,340,2011-11-27 15:20:00
5:50 PM,51.8,33.8,50,30.24,6.2,NNW,5.8,-,N/A,,Partly Cloudy,340,2011-11-27 15:50:00
6:20 PM,50.0,35.6,58,30.24,6.2,NNW,4.6,-,N/A,,Partly Cloudy,330,2011-11-27 16:20:00
6:50 PM,50.0,35.6,58,30.27,6.2,Calm,Calm,-,N/A,,Partly Cloudy,0,2011-11-27 16:50:00
7:20 PM,50.0,35.6,58,30.27,6.2,Calm,Calm,-,N/A,,Partly Cloudy,0,2011-11-27 17:20:00
7:50 PM,48.2,33.8,58,30.27,6.2,Calm,Calm,-,N/A,,Partly Cloudy,0,2011-11-27 17:50:00
8:20 PM,48.2,35.6,62,30.27,6.2,Calm,Calm,-,N/A,,Partly Cloudy,0,2011-11-27 18:20:00
8:50 PM,46.4,35.6,66,30.27,6.2,Calm,Calm,-,N/A,,Partly Cloudy,0,2011-11-27 18:50:00
9:20 PM,46.4,35.6,66,30.27,-9999.0,NNW,4.6,-,N/A,,Clear,330,2011-11-27 19:20:00
9:50 PM,46.4,35.6,66,30.27,-9999.0,NW,4.6,-,N/A,,Clear,310,2011-11-27 19:50:00
10:20 PM,46.4,35.6,66,30.27,-9999.0,WNW,4.6,-,N/A,,Clear,290,2011-11-27 20:20:00
10:50 PM,44.6,35.6,71,30.30,-9999.0,NW,4.6,-,N/A,,Clear,320,2011-11-27 20:50:00
11:20 PM,44.6,35.6,71,30.30,-9999.0,NW,4.6,-,N/A,,Clear,320,2011-11-27 21:20:00
11:50 PM,44.6,35.6,71,30.27,-9999.0,NW,4.6,-,N/A,,Clear,310,2011-11-27 21:50:00